STARLINK-11540 [DTC] (62564 NORAD) Tracking and Keplerian Element Data

This shows tracking and keplerian element data for the satellite.

Feedback or suggestion? Click here.




ElementValue
Catalog62564
NameSTARLINK-11540 [DTC]
Epoch Orbit494
Epoch Day35.02359138
Epoch Year2025
RAAN26.4217
Inclination43.0028
Eccentricity0.0004672
Argument of Perigee285.7034
Mean Anonmoly74.3321
Mean Motion15.77927714
Decay Rate0.00104847
L11 62564U 25006L 25035.02359138 .00104847 00000+0 59575-3 0 9999
L22 62564 43.0028 26.4217 0004672 285.7034 74.3321 15.77927714 4949



Live tracking and technical data element details for STARLINK-11540 [DTC] (NORAD 62564). STARLINK-11540 [DTC] can be tracked NOW for your location showing map with azimuth and elevation plus other details from your city location.







IsCatalogInMostPopularTable: catalog: 62564, numindb: 22
Update: records affected: 1



GetName: 62564 STARLINK-11540 [DTC]

Hit Count: updated at: Sat, 24 May 2025 15:31:32 GMT